This is the latest recevied weather packets stored in our database for station/object W0AKY-13. If no packets are shown the sender has not sent any weather packets the latest 10 day(s).
| Time | Temp. | Humidity | Pressure | Rain* | Wind** | Luminosity | Snow |
|---|---|---|---|---|---|---|---|
| 1777914842 | 26.11° C | 31% | 1003.7 hPa | 0 mm | - | 671 W/m² | - |
| 1777914539 | 26.67° C | 31% | 1003.7 hPa | 0 mm | - | 668 W/m² | - |
| 1777914235 | 26.67° C | 32% | 1003.6 hPa | 0 mm | - | 651 W/m² | - |
| 1777913933 | 26.11° C | 31% | 1003.7 hPa | 0 mm | - | 655 W/m² | - |
| 1777913629 | 26.11° C | 33% | 1003.8 hPa | 0 mm | - | 648 W/m² | - |
| 1777913325 | 25.56° C | 32% | 1004 hPa | 0 mm | - | 640 W/m² | - |
| 1777913022 | 25.56° C | 33% | 1003.6 hPa | 0 mm | - | 630 W/m² | - |
| 1777912718 | 25° C | 35% | 1003.9 hPa | 0 mm | - | 621 W/m² | - |
| 1777912414 | 25° C | 42% | 1003.9 hPa | 0 mm | - | 614 W/m² | - |
| 1777912111 | 25° C | 42% | 1003.8 hPa | 0 mm | - | 600 W/m² | - |
| 1777911806 | 24.44° C | 41% | 1003.9 hPa | 0 mm | - | 591 W/m² | - |
| 1777911504 | 24.44° C | 37% | 1003.9 hPa | 0 mm | - | 580 W/m² | - |
| 1777911200 | 23.33° C | 42% | 1004 hPa | 0 mm | - | 570 W/m² | - |
| 1777910898 | 23.33° C | 42% | 1004 hPa | 0 mm | - | 558 W/m² | - |
| 1777910595 | 23.33° C | 46% | 1003.8 hPa | 0 mm | - | 548 W/m² | - |
| 1777910292 | 22.78° C | 43% | 1003.8 hPa | 0 mm | - | 531 W/m² | - |
| 1777909988 | 22.78° C | 44% | 1004 hPa | 0 mm | - | 524 W/m² | - |
| 1777909685 | 22.22° C | 44% | 1004 hPa | 0 mm | - | 512 W/m² | - |
| 1777909383 | 21.67° C | 44% | 1004.2 hPa | 0 mm | - | 497 W/m² | - |
| 1777909081 | 21.67° C | 43% | 1004.3 hPa | 0 mm | - | 484 W/m² | - |
| 1777908778 | 21.67° C | 46% | 1004.2 hPa | 0 mm | - | 472 W/m² | - |
| 1777908475 | 21.67° C | 47% | 1003.9 hPa | 0 mm | - | 459 W/m² | - |
| 1777908171 | 20.56° C | 51% | 1003.8 hPa | 0 mm | - | 448 W/m² | - |
| 1777907868 | 20.56° C | 50% | 1004 hPa | 0 mm | - | 433 W/m² | - |
| 1777907563 | 20.56° C | 47% | 1004 hPa | 0 mm | - | 420 W/m² | - |
* Rain latest hour (hover to see other rain measurements)
** Current wind speed in m/s (hover to see current wind gust speed)